Home > Weather > Fargo > Past weeks

Flag for USA Past Weather in Fargo, North Dakota, USA — Yesterday and Last 2 Weeks

Now
82 °F

Sunny.


Feels Like: 83 °F
Forecast: 60 / 91 °F
Wind: 7 mph from South

Location: Hector International Airport

Current Time: Jul 25, 2016 at 1:08:04 PM

Latest Report: Jul 25, 2016 at 11:53 AM


Visibility: 10 mi

Pressure: 30.01 "Hg

Humidity: 49%

Dew Point: 61 °F

Location of FargoLocation

Past Weather in Fargo — Graph

°F

Fargo Temperature Yesterday

Maximum temperature yesterday: 82 °F (at 2:53 PM)
Minimum temperature yesterday: 62 °F (at 5:53 AM)
Average temperature yesterday: 73 °F

High & Low Weather Summary for the Past Weeks

 TemperatureHumidityPressure
High91 °F (Jul 22, 1:53 PM)94% (Jul 11, 1:53 AM)30.14 "Hg (Jul 11, 1:53 AM)
Low53 °F (Jul 15, 5:53 AM)38% (Jul 12, 4:53 PM)29.49 "Hg (Jul 11, 7:53 AM)
Average73 °F72%29.86 "Hg
* Reported Jul 10 11:53 AM — Jul 25 11:53 AM, Fargo, Weather by CustomWeather, © 2016

Note: Actual official high and low records may vary slightly from our data, if they occured in-between our weather recording intervals... More about our weather records

Advertising

Fargo Weather History for the Previous 24 Hours

Scroll right to see more
 ConditionsComfort  
Time TempWeatherWind HumidityBarometerVisibility
11:53 AM
Mon, Jul 25
82 °FSunny.7 mph49%30.01 "Hg10 mi
10:53 AM79 °FSunny.7 mph50%30.02 "Hg10 mi
9:53 AM77 °FSunny.No wind56%30.03 "Hg10 mi
8:53 AM72 °FSunny.No wind66%30.03 "Hg10 mi
7:53 AM67 °FSunny.6 mph76%30.03 "Hg10 mi
6:53 AM62 °FClear.6 mph83%30.02 "Hg10 mi
5:53 AM57 °FPassing clouds.No wind93%30.01 "Hg10 mi
4:53 AM61 °FClear.3 mph83%30.00 "Hg10 mi
3:53 AM62 °FClear.3 mph83%29.99 "Hg10 mi
2:53 AM62 °FClear.No wind83%29.99 "Hg10 mi
1:53 AM63 °FClear.5 mph84%29.98 "Hg10 mi
12:53 AM64 °FClear.7 mph81%29.98 "Hg10 mi
11:53 PM
Sun, Jul 24
66 °FClear.7 mph78%29.97 "Hg10 mi
10:53 PM68 °FClear.7 mph76%29.97 "Hg10 mi
9:53 PM70 °FSunny.7 mph73%29.96 "Hg10 mi
8:53 PM75 °FSunny.5 mph62%29.94 "Hg10 mi
7:53 PM79 °FSunny.9 mph48%29.93 "Hg10 mi
6:53 PM80 °FSunny.13 mph45%29.93 "Hg10 mi
5:53 PM81 °FSunny.18 mph41%29.93 "Hg10 mi
4:53 PM82 °FSunny.15 mph44%29.92 "Hg10 mi
3:53 PM82 °FScattered clouds.21 mph44%29.91 "Hg10 mi
2:53 PM82 °FPassing clouds.18 mph46%29.90 "Hg10 mi
1:53 PM81 °FSunny.16 mph49%29.88 "Hg10 mi
Weather by CustomWeather, © 2016

See weather overviewHow to use our weather pages